#datetime,building,power
2023-05-14T00:00:00,mfh,22.99
2023-05-14T00:01:00,mfh,22.98
2023-05-14T00:02:00,mfh,23.76
2023-05-14T00:03:00,mfh,23.72
2023-05-14T00:04:00,mfh,24.40
2023-05-14T00:05:00,mfh,23.86
2023-05-14T00:06:00,mfh,23.74
2023-05-14T00:07:00,mfh,23.03
2023-05-14T00:08:00,mfh,23.14
2023-05-14T00:09:00,mfh,23.11
2023-05-14T00:10:00,mfh,23.10
2023-05-14T00:11:00,mfh,23.58
2023-05-14T00:12:00,mfh,23.57
2023-05-14T00:13:00,mfh,23.55
2023-05-14T00:14:00,mfh,24.03
2023-05-14T00:15:00,mfh,24.62
2023-05-14T00:16:00,mfh,23.56
2023-05-14T00:17:00,mfh,23.72
2023-05-14T00:18:00,mfh,23.53
2023-05-14T00:19:00,mfh,23.27
2023-05-14T00:20:00,mfh,24.29
2023-05-14T00:21:00,mfh,24.60
2023-05-14T00:22:00,mfh,24.26
2023-05-14T00:23:00,mfh,24.14
2023-05-14T00:24:00,mfh,24.04
2023-05-14T00:25:00,mfh,23.40
2023-05-14T00:26:00,mfh,24.84
2023-05-14T00:27:00,mfh,23.89
2023-05-14T00:28:00,mfh,24.60
2023-05-14T00:29:00,mfh,26.35
2023-05-14T00:30:00,mfh,26.64
2023-05-14T00:31:00,mfh,26.05
2023-05-14T00:32:00,mfh,26.15
2023-05-14T00:33:00,mfh,27.00
2023-05-14T00:34:00,mfh,25.42
2023-05-14T00:35:00,mfh,25.41
2023-05-14T00:36:00,mfh,25.42
2023-05-14T00:37:00,mfh,26.00
2023-05-14T00:38:00,mfh,26.15
2023-05-14T00:39:00,mfh,26.21
2023-05-14T00:40:00,mfh,26.57
2023-05-14T00:41:00,mfh,26.24
2023-05-14T00:42:00,mfh,26.14
2023-05-14T00:43:00,mfh,25.50
2023-05-14T00:44:00,mfh,25.67
2023-05-14T00:45:00,mfh,25.72
2023-05-14T00:46:00,mfh,25.72
2023-05-14T00:47:00,mfh,26.57
2023-05-14T00:48:00,mfh,26.67
2023-05-14T00:49:00,mfh,26.70
2023-05-14T00:50:00,mfh,26.68
2023-05-14T00:51:00,mfh,26.63
2023-05-14T00:52:00,mfh,27.64
2023-05-14T00:53:00,mfh,25.94
2023-05-14T00:54:00,mfh,25.94
2023-05-14T00:55:00,mfh,26.04
2023-05-14T00:56:00,mfh,26.56
2023-05-14T00:57:00,mfh,26.56
2023-05-14T00:58:00,mfh,26.52
2023-05-14T00:59:00,mfh,26.53
2023-05-14T01:00:00,mfh,26.66
2023-05-14T01:01:00,mfh,25.98
2023-05-14T01:02:00,mfh,25.91
2023-05-14T01:03:00,mfh,25.91
2023-05-14T01:04:00,mfh,25.91
2023-05-14T01:05:00,mfh,26.60
2023-05-14T01:06:00,mfh,26.70
2023-05-14T01:07:00,mfh,27.63
2023-05-14T01:08:00,mfh,26.82
2023-05-14T01:09:00,mfh,26.79
2023-05-14T01:10:00,mfh,26.03
2023-05-14T01:11:00,mfh,26.13
2023-05-14T01:12:00,mfh,26.06
2023-05-14T01:13:00,mfh,25.97
2023-05-14T01:14:00,mfh,26.73
2023-05-14T01:15:00,mfh,26.54
2023-05-14T01:16:00,mfh,28.07
2023-05-14T01:17:00,mfh,28.20
2023-05-14T01:18:00,mfh,28.20
2023-05-14T01:19:00,mfh,28.23
2023-05-14T01:20:00,mfh,27.51
2023-05-14T01:21:00,mfh,27.65
2023-05-14T01:22:00,mfh,25.81
2023-05-14T01:23:00,mfh,26.43
2023-05-14T01:24:00,mfh,26.46
2023-05-14T01:25:00,mfh,26.41
2023-05-14T01:26:00,mfh,27.15
2023-05-14T01:27:00,mfh,26.39
2023-05-14T01:28:00,mfh,26.98
2023-05-14T01:29:00,mfh,25.86
2023-05-14T01:30:00,mfh,25.86
2023-05-14T01:31:00,mfh,25.94
2023-05-14T01:32:00,mfh,27.19
2023-05-14T01:33:00,mfh,26.63
2023-05-14T01:34:00,mfh,27.03
2023-05-14T01:35:00,mfh,26.50
2023-05-14T01:36:00,mfh,26.45
2023-05-14T01:37:00,mfh,25.83
2023-05-14T01:38:00,mfh,25.97
2023-05-14T01:39:00,mfh,26.38
2023-05-14T01:40:00,mfh,26.05
2023-05-14T01:41:00,mfh,27.34
2023-05-14T01:42:00,mfh,27.21
2023-05-14T01:43:00,mfh,26.81
2023-05-14T01:44:00,mfh,28.01
2023-05-14T01:45:00,mfh,26.76
2023-05-14T01:46:00,mfh,26.68
2023-05-14T01:47:00,mfh,26.26
2023-05-14T01:48:00,mfh,25.25
2023-05-14T01:49:00,mfh,25.36
2023-05-14T01:50:00,mfh,25.99
2023-05-14T01:51:00,mfh,26.01
2023-05-14T01:52:00,mfh,26.34
2023-05-14T01:53:00,mfh,26.20
2023-05-14T01:54:00,mfh,26.19
2023-05-14T01:55:00,mfh,26.24
2023-05-14T01:56:00,mfh,25.54
2023-05-14T01:57:00,mfh,25.53
2023-05-14T01:58:00,mfh,25.38
2023-05-14T01:59:00,mfh,26.55
2023-05-14T02:00:00,mfh,25.97
2023-05-14T02:01:00,mfh,25.94
2023-05-14T02:02:00,mfh,25.95
2023-05-14T02:03:00,mfh,25.91
2023-05-14T02:04:00,mfh,25.91
2023-05-14T02:05:00,mfh,25.86
2023-05-14T02:06:00,mfh,25.56
2023-05-14T02:07:00,mfh,25.30
2023-05-14T02:08:00,mfh,25.21
2023-05-14T02:09:00,mfh,26.39
2023-05-14T02:10:00,mfh,25.85
2023-05-14T02:11:00,mfh,25.84
2023-05-14T02:12:00,mfh,25.89
2023-05-14T02:13:00,mfh,25.87
2023-05-14T02:14:00,mfh,25.19
2023-05-14T02:15:00,mfh,25.20
2023-05-14T02:16:00,mfh,25.20
2023-05-14T02:17:00,mfh,26.84
2023-05-14T02:18:00,mfh,25.94
2023-05-14T02:19:00,mfh,26.57
2023-05-14T02:20:00,mfh,25.90
2023-05-14T02:21:00,mfh,25.85
2023-05-14T02:22:00,mfh,26.39
2023-05-14T02:23:00,mfh,25.76
2023-05-14T02:24:00,mfh,25.09
2023-05-14T02:25:00,mfh,25.18
2023-05-14T02:26:00,mfh,25.63
2023-05-14T02:27:00,mfh,25.86
2023-05-14T02:28:00,mfh,25.94
2023-05-14T02:29:00,mfh,26.06
2023-05-14T02:30:00,mfh,26.47
2023-05-14T02:31:00,mfh,26.31
2023-05-14T02:32:00,mfh,25.79
2023-05-14T02:33:00,mfh,25.60
2023-05-14T02:34:00,mfh,25.52
2023-05-14T02:35:00,mfh,26.18
2023-05-14T02:36:00,mfh,26.25
2023-05-14T02:37:00,mfh,26.19
2023-05-14T02:38:00,mfh,26.10
2023-05-14T02:39:00,mfh,26.35
2023-05-14T02:40:00,mfh,26.13
2023-05-14T02:41:00,mfh,25.85
2023-05-14T02:42:00,mfh,25.82
2023-05-14T02:43:00,mfh,25.69
2023-05-14T02:44:00,mfh,25.70
2023-05-14T02:45:00,mfh,26.23
2023-05-14T02:46:00,mfh,26.09
2023-05-14T02:47:00,mfh,26.86
2023-05-14T02:48:00,mfh,26.95
2023-05-14T02:49:00,mfh,27.74
2023-05-14T02:50:00,mfh,27.07
2023-05-14T02:51:00,mfh,26.66
2023-05-14T02:52:00,mfh,26.54
2023-05-14T02:53:00,mfh,25.35
2023-05-14T02:54:00,mfh,25.99
2023-05-14T02:55:00,mfh,27.24
2023-05-14T02:56:00,mfh,26.08
2023-05-14T02:57:00,mfh,26.38
2023-05-14T02:58:00,mfh,26.83
2023-05-14T02:59:00,mfh,26.10
2023-05-14T03:00:00,mfh,25.76
2023-05-14T03:01:00,mfh,26.07
2023-05-14T03:02:00,mfh,25.43
2023-05-14T03:03:00,mfh,25.96
2023-05-14T03:04:00,mfh,26.22
2023-05-14T03:05:00,mfh,26.01
2023-05-14T03:06:00,mfh,26.00
2023-05-14T03:07:00,mfh,26.19
2023-05-14T03:08:00,mfh,25.44
2023-05-14T03:09:00,mfh,25.53
2023-05-14T03:10:00,mfh,25.49
2023-05-14T03:11:00,mfh,25.50
2023-05-14T03:12:00,mfh,26.00
2023-05-14T03:13:00,mfh,25.83
2023-05-14T03:14:00,mfh,25.84
2023-05-14T03:15:00,mfh,25.86
2023-05-14T03:16:00,mfh,25.91
2023-05-14T03:17:00,mfh,25.85
2023-05-14T03:18:00,mfh,25.18
2023-05-14T03:19:00,mfh,25.21
2023-05-14T03:20:00,mfh,25.42
2023-05-14T03:21:00,mfh,25.99
2023-05-14T03:22:00,mfh,26.04
2023-05-14T03:23:00,mfh,26.11
2023-05-14T03:24:00,mfh,26.09
2023-05-14T03:25:00,mfh,26.02
2023-05-14T03:26:00,mfh,27.63
2023-05-14T03:27:00,mfh,27.08
2023-05-14T03:28:00,mfh,27.08
2023-05-14T03:29:00,mfh,27.17
2023-05-14T03:30:00,mfh,27.80
2023-05-14T03:31:00,mfh,28.35
2023-05-14T03:32:00,mfh,26.22
2023-05-14T03:33:00,mfh,26.26
2023-05-14T03:34:00,mfh,26.21
2023-05-14T03:35:00,mfh,26.22
2023-05-14T03:36:00,mfh,26.03
2023-05-14T03:37:00,mfh,25.42
2023-05-14T03:38:00,mfh,25.41
2023-05-14T03:39:00,mfh,25.73
2023-05-14T03:40:00,mfh,26.73
2023-05-14T03:41:00,mfh,26.08
2023-05-14T03:42:00,mfh,26.09
2023-05-14T03:43:00,mfh,26.06
2023-05-14T03:44:00,mfh,26.33
2023-05-14T03:45:00,mfh,25.67
2023-05-14T03:46:00,mfh,25.68
2023-05-14T03:47:00,mfh,25.50
2023-05-14T03:48:00,mfh,26.11
2023-05-14T03:49:00,mfh,26.10
2023-05-14T03:50:00,mfh,26.08
2023-05-14T03:51:00,mfh,26.07
2023-05-14T03:52:00,mfh,26.18
2023-05-14T03:53:00,mfh,26.58
2023-05-14T03:54:00,mfh,25.48
2023-05-14T03:55:00,mfh,25.64
2023-05-14T03:56:00,mfh,25.88
2023-05-14T03:57:00,mfh,25.63
2023-05-14T03:58:00,mfh,26.20
2023-05-14T03:59:00,mfh,26.11
2023-05-14T04:00:00,mfh,27.16
2023-05-14T04:01:00,mfh,26.27
2023-05-14T04:02:00,mfh,26.17
2023-05-14T04:03:00,mfh,25.42
2023-05-14T04:04:00,mfh,25.58
2023-05-14T04:05:00,mfh,25.21
2023-05-14T04:06:00,mfh,25.40
2023-05-14T04:07:00,mfh,26.09
2023-05-14T04:08:00,mfh,26.12
2023-05-14T04:09:00,mfh,26.17
2023-05-14T04:10:00,mfh,26.26
2023-05-14T04:11:00,mfh,26.78
2023-05-14T04:12:00,mfh,26.28
2023-05-14T04:13:00,mfh,25.64
2023-05-14T04:14:00,mfh,25.64
2023-05-14T04:15:00,mfh,25.63
2023-05-14T04:16:00,mfh,26.18
2023-05-14T04:17:00,mfh,26.88
2023-05-14T04:18:00,mfh,26.42
2023-05-14T04:19:00,mfh,26.38
2023-05-14T04:20:00,mfh,26.31
2023-05-14T04:21:00,mfh,25.58
2023-05-14T04:22:00,mfh,25.95
2023-05-14T04:23:00,mfh,25.57
2023-05-14T04:24:00,mfh,26.06
2023-05-14T04:25:00,mfh,26.05
2023-05-14T04:26:00,mfh,26.00
2023-05-14T04:27:00,mfh,25.99
2023-05-14T04:28:00,mfh,26.05
2023-05-14T04:29:00,mfh,27.18
2023-05-14T04:30:00,mfh,26.19
2023-05-14T04:31:00,mfh,25.38
2023-05-14T04:32:00,mfh,25.43
2023-05-14T04:33:00,mfh,25.44
2023-05-14T04:34:00,mfh,26.16
2023-05-14T04:35:00,mfh,26.15
2023-05-14T04:36:00,mfh,26.33
2023-05-14T04:37:00,mfh,26.60
2023-05-14T04:38:00,mfh,26.18
2023-05-14T04:39:00,mfh,26.25
2023-05-14T04:40:00,mfh,26.52
2023-05-14T04:41:00,mfh,25.60
2023-05-14T04:42:00,mfh,25.53
2023-05-14T04:43:00,mfh,26.16
2023-05-14T04:44:00,mfh,26.56
2023-05-14T04:45:00,mfh,26.18
2023-05-14T04:46:00,mfh,26.32
2023-05-14T04:47:00,mfh,26.99
2023-05-14T04:48:00,mfh,26.21
2023-05-14T04:49:00,mfh,25.60
2023-05-14T04:50:00,mfh,25.75
2023-05-14T04:51:00,mfh,25.61
2023-05-14T04:52:00,mfh,26.59
2023-05-14T04:53:00,mfh,25.97
2023-05-14T04:54:00,mfh,25.91
2023-05-14T04:55:00,mfh,25.92
2023-05-14T04:56:00,mfh,25.92
2023-05-14T04:57:00,mfh,25.86
2023-05-14T04:58:00,mfh,25.58
2023-05-14T04:59:00,mfh,25.76
2023-05-14T05:00:00,mfh,25.55
2023-05-14T05:01:00,mfh,45.65
2023-05-14T05:02:00,mfh,46.68
2023-05-14T05:03:00,mfh,46.68
2023-05-14T05:04:00,mfh,47.00
2023-05-14T05:05:00,mfh,46.26
2023-05-14T05:06:00,mfh,46.05
2023-05-14T05:07:00,mfh,46.39
2023-05-14T05:08:00,mfh,45.74
2023-05-14T05:09:00,mfh,46.33
2023-05-14T05:10:00,mfh,45.64
2023-05-14T05:11:00,mfh,46.27
2023-05-14T05:12:00,mfh,46.45
2023-05-14T05:13:00,mfh,46.39
2023-05-14T05:14:00,mfh,46.35
2023-05-14T05:15:00,mfh,46.26
2023-05-14T05:16:00,mfh,45.65
2023-05-14T05:17:00,mfh,45.69
2023-05-14T05:18:00,mfh,45.65
2023-05-14T05:19:00,mfh,46.49
2023-05-14T05:20:00,mfh,45.96
2023-05-14T05:21:00,mfh,46.07
2023-05-14T05:22:00,mfh,45.97
2023-05-14T05:23:00,mfh,46.13
2023-05-14T05:24:00,mfh,46.21
2023-05-14T05:25:00,mfh,45.40
2023-05-14T05:26:00,mfh,45.36
2023-05-14T05:27:00,mfh,45.39
2023-05-14T05:28:00,mfh,45.35
2023-05-14T05:29:00,mfh,46.22
2023-05-14T05:30:00,mfh,45.89
2023-05-14T05:31:00,mfh,45.79
2023-05-14T05:32:00,mfh,46.51
2023-05-14T05:33:00,mfh,46.29
2023-05-14T05:34:00,mfh,45.31
2023-05-14T05:35:00,mfh,45.41
2023-05-14T05:36:00,mfh,45.46
2023-05-14T05:37:00,mfh,47.60
2023-05-14T05:38:00,mfh,47.70
2023-05-14T05:39:00,mfh,47.55
2023-05-14T05:40:00,mfh,47.51
2023-05-14T05:41:00,mfh,47.41
2023-05-14T05:42:00,mfh,47.95
2023-05-14T05:43:00,mfh,45.77
2023-05-14T05:44:00,mfh,58.32
2023-05-14T05:45:00,mfh,60.65
2023-05-14T05:46:00,mfh,61.20
2023-05-14T05:47:00,mfh,62.61
2023-05-14T05:48:00,mfh,61.22
2023-05-14T05:49:00,mfh,61.40
2023-05-14T05:50:00,mfh,61.48
2023-05-14T05:51:00,mfh,61.93
2023-05-14T05:52:00,mfh,61.53
2023-05-14T05:53:00,mfh,61.56
2023-05-14T05:54:00,mfh,61.71
2023-05-14T05:55:00,mfh,63.65
2023-05-14T05:56:00,mfh,62.64
2023-05-14T05:57:00,mfh,62.13
2023-05-14T05:58:00,mfh,62.71
2023-05-14T05:59:00,mfh,62.44
2023-05-14T06:00:00,mfh,62.80
2023-05-14T06:01:00,mfh,62.85
2023-05-14T06:02:00,mfh,62.72
2023-05-14T06:03:00,mfh,62.94
2023-05-14T06:04:00,mfh,63.03
2023-05-14T06:05:00,mfh,62.43
2023-05-14T06:06:00,mfh,61.79
2023-05-14T06:07:00,mfh,61.81
2023-05-14T06:08:00,mfh,61.64
2023-05-14T06:09:00,mfh,62.12
2023-05-14T06:10:00,mfh,62.59
2023-05-14T06:11:00,mfh,62.67
2023-05-14T06:12:00,mfh,62.53
2023-05-14T06:13:00,mfh,63.01
2023-05-14T06:14:00,mfh,71.64
2023-05-14T06:15:00,mfh,71.65
2023-05-14T06:16:00,mfh,71.89
2023-05-14T06:17:00,mfh,72.93
2023-05-14T06:18:00,mfh,72.71
2023-05-14T06:19:00,mfh,72.57
2023-05-14T06:20:00,mfh,72.92
2023-05-14T06:21:00,mfh,72.56
2023-05-14T06:22:00,mfh,72.20
2023-05-14T06:23:00,mfh,72.44
2023-05-14T06:24:00,mfh,71.70
2023-05-14T06:25:00,mfh,72.23
2023-05-14T06:26:00,mfh,71.77
2023-05-14T06:27:00,mfh,72.33
2023-05-14T06:28:00,mfh,73.43
2023-05-14T06:29:00,mfh,73.78
2023-05-14T06:30:00,mfh,73.48
2023-05-14T06:31:00,mfh,72.81
2023-05-14T06:32:00,mfh,71.95
2023-05-14T06:33:00,mfh,72.01
2023-05-14T06:34:00,mfh,72.32
2023-05-14T06:35:00,mfh,71.99
2023-05-14T06:36:00,mfh,72.56
2023-05-14T06:37:00,mfh,72.60
2023-05-14T06:38:00,mfh,73.08
2023-05-14T06:39:00,mfh,72.98
2023-05-14T06:40:00,mfh,73.12
2023-05-14T06:41:00,mfh,73.31
2023-05-14T06:42:00,mfh,72.87
2023-05-14T06:43:00,mfh,72.41
2023-05-14T06:44:00,mfh,72.40
2023-05-14T06:45:00,mfh,73.33
2023-05-14T06:46:00,mfh,72.36
2023-05-14T06:47:00,mfh,71.73
2023-05-14T06:48:00,mfh,72.74
2023-05-14T06:49:00,mfh,73.74
2023-05-14T06:50:00,mfh,72.40
2023-05-14T06:51:00,mfh,73.34
2023-05-14T06:52:00,mfh,73.57
2023-05-14T06:53:00,mfh,72.80
2023-05-14T06:54:00,mfh,74.09
2023-05-14T06:55:00,mfh,74.08
2023-05-14T06:56:00,mfh,73.60
2023-05-14T06:57:00,mfh,73.59
2023-05-14T06:58:00,mfh,73.69
2023-05-14T06:59:00,mfh,73.09
2023-05-14T07:00:00,mfh,73.44
2023-05-14T07:01:00,mfh,71.81
2023-05-14T07:02:00,mfh,73.66
2023-05-14T07:03:00,mfh,72.44
2023-05-14T07:04:00,mfh,72.27
2023-05-14T07:05:00,mfh,72.18
2023-05-14T07:06:00,mfh,72.68
2023-05-14T07:07:00,mfh,72.16
2023-05-14T07:08:00,mfh,72.53
2023-05-14T07:09:00,mfh,72.90
2023-05-14T07:10:00,mfh,72.27
2023-05-14T07:11:00,mfh,73.50
2023-05-14T07:12:00,mfh,73.04
2023-05-14T07:13:00,mfh,73.38
2023-05-14T07:14:00,mfh,73.50
2023-05-14T07:15:00,mfh,73.06
2023-05-14T07:16:00,mfh,72.98
2023-05-14T07:17:00,mfh,72.22
2023-05-14T07:18:00,mfh,72.14
2023-05-14T07:19:00,mfh,72.02
2023-05-14T07:20:00,mfh,72.12
2023-05-14T07:21:00,mfh,72.99
2023-05-14T07:22:00,mfh,72.67
2023-05-14T07:23:00,mfh,72.96
2023-05-14T07:24:00,mfh,72.66
2023-05-14T07:25:00,mfh,72.53
2023-05-14T07:26:00,mfh,72.30
2023-05-14T07:27:00,mfh,71.87
2023-05-14T07:28:00,mfh,72.11
2023-05-14T07:29:00,mfh,72.75
2023-05-14T07:30:00,mfh,73.63
2023-05-14T07:31:00,mfh,73.08
2023-05-14T07:32:00,mfh,72.40
2023-05-14T07:33:00,mfh,72.61
2023-05-14T07:34:00,mfh,72.71
2023-05-14T07:35:00,mfh,72.05
2023-05-14T07:36:00,mfh,71.81
2023-05-14T07:37:00,mfh,71.61
2023-05-14T07:38:00,mfh,72.00
2023-05-14T07:39:00,mfh,72.28
2023-05-14T07:40:00,mfh,72.30
2023-05-14T07:41:00,mfh,73.08
2023-05-14T07:42:00,mfh,72.16
2023-05-14T07:43:00,mfh,73.42
2023-05-14T07:44:00,mfh,72.45
2023-05-14T07:45:00,mfh,72.49
2023-05-14T07:46:00,mfh,72.48
2023-05-14T07:47:00,mfh,72.42
2023-05-14T07:48:00,mfh,72.94
2023-05-14T07:49:00,mfh,72.92
2023-05-14T07:50:00,mfh,73.34
2023-05-14T07:51:00,mfh,73.00
2023-05-14T07:52:00,mfh,72.77
2023-05-14T07:53:00,mfh,72.49
2023-05-14T07:54:00,mfh,72.12
2023-05-14T07:55:00,mfh,72.01
2023-05-14T07:56:00,mfh,72.52
2023-05-14T07:57:00,mfh,71.72
2023-05-14T07:58:00,mfh,73.31
2023-05-14T07:59:00,mfh,73.30
2023-05-14T08:00:00,mfh,73.29
2023-05-14T08:01:00,mfh,73.19
2023-05-14T08:02:00,mfh,72.00
2023-05-14T08:03:00,mfh,71.94
2023-05-14T08:04:00,mfh,70.24
2023-05-14T08:05:00,mfh,71.01
2023-05-14T08:06:00,mfh,72.03
2023-05-14T08:07:00,mfh,71.03
2023-05-14T08:08:00,mfh,71.09
2023-05-14T08:09:00,mfh,71.17
2023-05-14T08:10:00,mfh,71.52
2023-05-14T08:11:00,mfh,71.39
2023-05-14T08:12:00,mfh,70.81
2023-05-14T08:13:00,mfh,71.79
2023-05-14T08:14:00,mfh,71.02
2023-05-14T08:15:00,mfh,72.10
2023-05-14T08:16:00,mfh,72.16
2023-05-14T08:17:00,mfh,71.74
2023-05-14T08:18:00,mfh,72.71
2023-05-14T08:19:00,mfh,71.92
2023-05-14T08:20:00,mfh,71.33
2023-05-14T08:21:00,mfh,71.73
2023-05-14T08:22:00,mfh,71.53
2023-05-14T08:23:00,mfh,72.16
2023-05-14T08:24:00,mfh,72.12
2023-05-14T08:25:00,mfh,73.03
2023-05-14T08:26:00,mfh,72.16
2023-05-14T08:27:00,mfh,72.06
2023-05-14T08:28:00,mfh,72.01
2023-05-14T08:29:00,mfh,71.23
2023-05-14T08:30:00,mfh,71.11
2023-05-14T08:31:00,mfh,75.28
2023-05-14T08:32:00,mfh,76.43
2023-05-14T08:33:00,mfh,75.69
2023-05-14T08:34:00,mfh,75.81
2023-05-14T08:35:00,mfh,76.10
2023-05-14T08:36:00,mfh,75.99
2023-05-14T08:37:00,mfh,76.27
2023-05-14T08:38:00,mfh,75.86
2023-05-14T08:39:00,mfh,76.45
2023-05-14T08:40:00,mfh,75.86
2023-05-14T08:41:00,mfh,75.85
2023-05-14T08:42:00,mfh,75.36
2023-05-14T08:43:00,mfh,75.29
2023-05-14T08:44:00,mfh,75.05
2023-05-14T08:45:00,mfh,75.84
2023-05-14T08:46:00,mfh,76.11
2023-05-14T08:47:00,mfh,75.81
2023-05-14T08:48:00,mfh,75.95
2023-05-14T08:49:00,mfh,75.96
2023-05-14T08:50:00,mfh,76.48
2023-05-14T08:51:00,mfh,76.14
2023-05-14T08:52:00,mfh,76.10
2023-05-14T08:53:00,mfh,76.04
2023-05-14T08:54:00,mfh,76.03
2023-05-14T08:55:00,mfh,75.32
2023-05-14T08:56:00,mfh,75.36
2023-05-14T08:57:00,mfh,75.36
2023-05-14T08:58:00,mfh,75.99
2023-05-14T08:59:00,mfh,76.02
2023-05-14T09:00:00,mfh,76.00
2023-05-14T09:01:00,mfh,76.62
2023-05-14T09:02:00,mfh,76.51
2023-05-14T09:03:00,mfh,76.50
2023-05-14T09:04:00,mfh,76.56
2023-05-14T09:05:00,mfh,76.52
2023-05-14T09:06:00,mfh,77.26
2023-05-14T09:07:00,mfh,76.30
2023-05-14T09:08:00,mfh,75.82
2023-05-14T09:09:00,mfh,76.23
2023-05-14T09:10:00,mfh,76.14
2023-05-14T09:11:00,mfh,76.79
2023-05-14T09:12:00,mfh,76.31
2023-05-14T09:13:00,mfh,77.06
2023-05-14T09:14:00,mfh,76.39
2023-05-14T09:15:00,mfh,76.28
2023-05-14T09:16:00,mfh,75.48
2023-05-14T09:17:00,mfh,76.02
2023-05-14T09:18:00,mfh,75.79
2023-05-14T09:19:00,mfh,76.69
2023-05-14T09:20:00,mfh,76.16
2023-05-14T09:21:00,mfh,75.38
2023-05-14T09:22:00,mfh,75.41
2023-05-14T09:23:00,mfh,75.83
2023-05-14T09:24:00,mfh,76.61
2023-05-14T09:25:00,mfh,76.41
2023-05-14T09:26:00,mfh,76.38
2023-05-14T09:27:00,mfh,76.50
2023-05-14T09:28:00,mfh,76.58
2023-05-14T09:29:00,mfh,76.42
2023-05-14T09:30:00,mfh,76.51
2023-05-14T09:31:00,mfh,76.41
2023-05-14T09:32:00,mfh,76.54
2023-05-14T09:33:00,mfh,76.96
2023-05-14T09:34:00,mfh,75.62
2023-05-14T09:35:00,mfh,77.49
2023-05-14T09:36:00,mfh,76.84
2023-05-14T09:37:00,mfh,77.63
2023-05-14T09:38:00,mfh,77.73
2023-05-14T09:39:00,mfh,77.07
2023-05-14T09:40:00,mfh,76.91
2023-05-14T09:41:00,mfh,76.94
2023-05-14T09:42:00,mfh,77.70
2023-05-14T09:43:00,mfh,77.71
2023-05-14T09:44:00,mfh,77.76
2023-05-14T09:45:00,mfh,77.81
2023-05-14T09:46:00,mfh,77.77
2023-05-14T09:47:00,mfh,77.70
2023-05-14T09:48:00,mfh,77.48
2023-05-14T09:49:00,mfh,77.11
2023-05-14T09:50:00,mfh,77.74
2023-05-14T09:51:00,mfh,78.00
2023-05-14T09:52:00,mfh,78.28
2023-05-14T09:53:00,mfh,77.61
2023-05-14T09:54:00,mfh,77.72
2023-05-14T09:55:00,mfh,77.17
2023-05-14T09:56:00,mfh,78.18
2023-05-14T09:57:00,mfh,78.09
2023-05-14T09:58:00,mfh,78.00
2023-05-14T09:59:00,mfh,77.89
2023-05-14T10:00:00,mfh,78.07
2023-05-14T10:01:00,mfh,77.49
2023-05-14T10:02:00,mfh,77.52
2023-05-14T10:03:00,mfh,77.19
2023-05-14T10:04:00,mfh,77.84
2023-05-14T10:05:00,mfh,77.61
2023-05-14T10:06:00,mfh,77.62
2023-05-14T10:07:00,mfh,78.21
2023-05-14T10:08:00,mfh,77.58
2023-05-14T10:09:00,mfh,77.72
2023-05-14T10:10:00,mfh,77.69
2023-05-14T10:11:00,mfh,77.80
2023-05-14T10:12:00,mfh,78.01
2023-05-14T10:13:00,mfh,77.72
2023-05-14T10:14:00,mfh,77.06
2023-05-14T10:15:00,mfh,78.56
2023-05-14T10:16:00,mfh,78.50
2023-05-14T10:17:00,mfh,79.63
2023-05-14T10:18:00,mfh,79.01
2023-05-14T10:19:00,mfh,79.36
2023-05-14T10:20:00,mfh,79.06
2023-05-14T10:21:00,mfh,79.78
2023-05-14T10:22:00,mfh,79.30
2023-05-14T10:23:00,mfh,79.26
2023-05-14T10:24:00,mfh,79.41
2023-05-14T10:25:00,mfh,79.81
2023-05-14T10:26:00,mfh,79.62
2023-05-14T10:27:00,mfh,79.18
2023-05-14T10:28:00,mfh,79.31
2023-05-14T10:29:00,mfh,79.45
2023-05-14T10:30:00,mfh,79.73
2023-05-14T10:31:00,mfh,79.24
2023-05-14T10:32:00,mfh,79.22
2023-05-14T10:33:00,mfh,79.06
2023-05-14T10:34:00,mfh,79.09
2023-05-14T10:35:00,mfh,78.62
2023-05-14T10:36:00,mfh,79.06
2023-05-14T10:37:00,mfh,78.99
2023-05-14T10:38:00,mfh,78.78
2023-05-14T10:39:00,mfh,78.92
2023-05-14T10:40:00,mfh,78.87
2023-05-14T10:41:00,mfh,78.44
2023-05-14T10:42:00,mfh,78.34
2023-05-14T10:43:00,mfh,78.87
2023-05-14T10:44:00,mfh,78.91
2023-05-14T10:45:00,mfh,78.18
2023-05-14T10:46:00,mfh,78.39
2023-05-14T10:47:00,mfh,78.14
2023-05-14T10:48:00,mfh,78.48
2023-05-14T10:49:00,mfh,78.96
2023-05-14T10:50:00,mfh,78.85
2023-05-14T10:51:00,mfh,79.47
2023-05-14T10:52:00,mfh,79.48
2023-05-14T10:53:00,mfh,78.96
2023-05-14T10:54:00,mfh,78.25
2023-05-14T10:55:00,mfh,79.14
2023-05-14T10:56:00,mfh,78.88
2023-05-14T10:57:00,mfh,79.34
2023-05-14T10:58:00,mfh,79.16
2023-05-14T10:59:00,mfh,79.31
2023-05-14T11:00:00,mfh,79.01
2023-05-14T11:01:00,mfh,79.34
2023-05-14T11:02:00,mfh,79.18
2023-05-14T11:03:00,mfh,79.77
2023-05-14T11:04:00,mfh,78.85
2023-05-14T11:05:00,mfh,79.39
2023-05-14T11:06:00,mfh,79.07
2023-05-14T11:07:00,mfh,77.94
2023-05-14T11:08:00,mfh,77.90
2023-05-14T11:09:00,mfh,77.68
2023-05-14T11:10:00,mfh,78.35
2023-05-14T11:11:00,mfh,78.72
2023-05-14T11:12:00,mfh,78.73
2023-05-14T11:13:00,mfh,78.78
2023-05-14T11:14:00,mfh,78.49
2023-05-14T11:15:00,mfh,78.81
2023-05-14T11:16:00,mfh,78.67
2023-05-14T11:17:00,mfh,79.59
2023-05-14T11:18:00,mfh,79.10
2023-05-14T11:19:00,mfh,78.59
2023-05-14T11:20:00,mfh,78.51
2023-05-14T11:21:00,mfh,79.08
2023-05-14T11:22:00,mfh,78.56
2023-05-14T11:23:00,mfh,77.90
2023-05-14T11:24:00,mfh,78.47
2023-05-14T11:25:00,mfh,79.17
2023-05-14T11:26:00,mfh,79.25
2023-05-14T11:27:00,mfh,78.70
2023-05-14T11:28:00,mfh,78.82
2023-05-14T11:29:00,mfh,78.70
2023-05-14T11:30:00,mfh,79.02
2023-05-14T11:31:00,mfh,78.75
2023-05-14T11:32:00,mfh,78.80
2023-05-14T11:33:00,mfh,78.71
2023-05-14T11:34:00,mfh,78.08
2023-05-14T11:35:00,mfh,77.35
2023-05-14T11:36:00,mfh,77.49
2023-05-14T11:37:00,mfh,78.28
2023-05-14T11:38:00,mfh,78.69
2023-05-14T11:39:00,mfh,78.52
2023-05-14T11:40:00,mfh,78.75
2023-05-14T11:41:00,mfh,78.58
2023-05-14T11:42:00,mfh,78.67
2023-05-14T11:43:00,mfh,79.11
2023-05-14T11:44:00,mfh,79.07
2023-05-14T11:45:00,mfh,79.53
2023-05-14T11:46:00,mfh,79.38
2023-05-14T11:47:00,mfh,79.09
2023-05-14T11:48:00,mfh,78.97
2023-05-14T11:49:00,mfh,78.35
2023-05-14T11:50:00,mfh,79.00
2023-05-14T11:51:00,mfh,78.13
2023-05-14T11:52:00,mfh,78.70
2023-05-14T11:53:00,mfh,78.47
2023-05-14T11:54:00,mfh,78.16
2023-05-14T11:55:00,mfh,78.22
2023-05-14T11:56:00,mfh,78.33
2023-05-14T11:57:00,mfh,78.57
2023-05-14T11:58:00,mfh,78.27
2023-05-14T11:59:00,mfh,78.33
2023-05-14T12:00:00,mfh,78.27
2023-05-14T12:01:00,mfh,77.98
2023-05-14T12:02:00,mfh,77.33
2023-05-14T12:03:00,mfh,77.60
2023-05-14T12:04:00,mfh,78.14
2023-05-14T12:05:00,mfh,77.83
2023-05-14T12:06:00,mfh,76.99
2023-05-14T12:07:00,mfh,77.00
2023-05-14T12:08:00,mfh,76.85
2023-05-14T12:09:00,mfh,77.28
2023-05-14T12:10:00,mfh,77.64
2023-05-14T12:11:00,mfh,77.39
2023-05-14T12:12:00,mfh,77.38
2023-05-14T12:13:00,mfh,77.74
2023-05-14T12:14:00,mfh,78.06
2023-05-14T12:15:00,mfh,78.05
2023-05-14T12:16:00,mfh,77.06
2023-05-14T12:17:00,mfh,76.81
2023-05-14T12:18:00,mfh,77.05
2023-05-14T12:19:00,mfh,77.25
2023-05-14T12:20:00,mfh,77.12
2023-05-14T12:21:00,mfh,77.28
2023-05-14T12:22:00,mfh,77.46
2023-05-14T12:23:00,mfh,77.16
2023-05-14T12:24:00,mfh,76.87
2023-05-14T12:25:00,mfh,76.72
2023-05-14T12:26:00,mfh,77.14
2023-05-14T12:27:00,mfh,74.18
2023-05-14T12:28:00,mfh,73.54
2023-05-14T12:29:00,mfh,73.32
2023-05-14T12:30:00,mfh,73.84
2023-05-14T12:31:00,mfh,74.02
2023-05-14T12:32:00,mfh,74.47
2023-05-14T12:33:00,mfh,74.39
2023-05-14T12:34:00,mfh,73.96
2023-05-14T12:35:00,mfh,74.02
2023-05-14T12:36:00,mfh,73.96
2023-05-14T12:37:00,mfh,73.90
2023-05-14T12:38:00,mfh,74.08
2023-05-14T12:39:00,mfh,73.77
2023-05-14T12:40:00,mfh,74.36
2023-05-14T12:41:00,mfh,75.03
2023-05-14T12:42:00,mfh,76.45
2023-05-14T12:43:00,mfh,74.86
2023-05-14T12:44:00,mfh,75.29
2023-05-14T12:45:00,mfh,75.02
2023-05-14T12:46:00,mfh,75.24
2023-05-14T12:47:00,mfh,75.75
2023-05-14T12:48:00,mfh,75.10
2023-05-14T12:49:00,mfh,74.69
2023-05-14T12:50:00,mfh,74.71
2023-05-14T12:51:00,mfh,75.24
2023-05-14T12:52:00,mfh,75.04
2023-05-14T12:53:00,mfh,75.88
2023-05-14T12:54:00,mfh,75.72
2023-05-14T12:55:00,mfh,75.53
2023-05-14T12:56:00,mfh,75.56
2023-05-14T12:57:00,mfh,75.31
2023-05-14T12:58:00,mfh,76.16
2023-05-14T12:59:00,mfh,75.88
2023-05-14T13:00:00,mfh,75.67
2023-05-14T13:01:00,mfh,75.49
2023-05-14T13:02:00,mfh,75.90
2023-05-14T13:03:00,mfh,76.02
2023-05-14T13:04:00,mfh,76.09
2023-05-14T13:05:00,mfh,75.49
2023-05-14T13:06:00,mfh,74.66
2023-05-14T13:07:00,mfh,74.91
2023-05-14T13:08:00,mfh,74.39
2023-05-14T13:09:00,mfh,75.62
2023-05-14T13:10:00,mfh,75.56
2023-05-14T13:11:00,mfh,75.58
2023-05-14T13:12:00,mfh,75.56
2023-05-14T13:13:00,mfh,75.36
2023-05-14T13:14:00,mfh,75.30
2023-05-14T13:15:00,mfh,75.48
2023-05-14T13:16:00,mfh,75.24
2023-05-14T13:17:00,mfh,75.01
2023-05-14T13:18:00,mfh,74.95